Weather in Pattani

Thailand     6°51′15″N   101°15′32″E
temp.,
°C
wind,
m/s
gust,
m/s
humid.,
%
clouds,
%
prec.,
mm/h
press.,
hPa
HPBL,
m
25 january, mon
mon2501:00+22se129664 0.0 101158
04:00+22se129651 0.0 101050
07:00+22se249761 0.0 1011143
10:00+27ese367438 0.0 1013941
13:00+30e466170 0.0 10101274
16:00+28e4666100 0.0 10081039
19:00+23e378395 0.0 1009222
22:00+22e239026 0.0 101194
26 january, tue
tue2601:00+21sse239313 0.0 101061
04:00+21se22922 0.0 101046
07:00+21e259226 0.0 1010130
10:00+27ese467474 0.0 1012906
13:00+29e476261 0.0 10101270
16:00+28e4666100 0.0 10071004
19:00+23ene3783100 0.0 1009250
22:00+22ese238830 0.0 101178
27 january, wed
wed2701:00+21sse229333 0.0 101058
04:00+21se229548 0.0 100851
07:00+21se229473 0.0 101080
10:00+28ese36741 0.0 1011809
13:00+29e357615 2.4 1009992
16:00+28e577779 2.8 1007934
19:00+24e388880 2.8 1009312
22:00+23ese259346 0.0 1012170
28 january, thu
thu2801:00+22se239639 0.0 1011112
04:00+22ese269625 0.0 1010186
07:00+22se269623 0.0 1011210
10:00+28ese47754 0.0 1013915
13:00+31e566330 0.0 10111400
16:00+29e577032 0.0 1008990
19:00+24e398726 0.0 1010372
22:00+23se23950 0.0 1013109
29 january, fri
fri2901:00+22se239633 0.0 1012102
04:00+22se2397100 0.0 1011122
07:00+22se2596100 0.0 1012168
10:00+27ese5973100 0.1 10131221
13:00+29e6964100 0.1 10111433
16:00+28e6973100 0.2 10091166
19:00+24e398788 0.4 1010487
22:00+23ese398697 0.0 1013411